Temperature
5 5 5 5 5 5 5 5 5 5 5 5 5 5 5 5 5 5 5 5 5 5 5 5 5 5 5 5 5 5 5 5 4 4 4 4 4 4 4 4 4 4 4
4 4 4 4 4 4 4 4 4 4 4 4 4 4 4 4 4 4 4 5 5 4 4 4 4 4 4 4 4 4 4 4 4 4 4 4 4 3 3 3 4 4 4
4 4 3 4 4 4 4 4 4 4 4 4 4 4 4 4 4 4 4 4 4 4 4 4 4 4 4 4 4 3 4 3 3 3 3 3 3 3 3 3 3 3 3
3 3 3 3 3 3 3 3 3 3 3 3 3 3 3 3 3 3 3 3 3 3 3 3 3 3 3 3 3 3 3 3 3 3 3 3 3 3 3 3 3 3 3
2 3 2 2 2 3 3 3 3 3 3 3 3 3 3 3 3 3 3 3 3 3 3 3 3 3 3 3 2 2 2 2 2 2 2 2 2 2 2 2 2 2 2
2 2 2 2 2 2 2 2 2 2 2 2 2 2 2 2 2 2 2 2 2 2 2 2 2 2 2 2 2 2 2 2 2 1 1 1 2 2 1 1 1 1 1
1 1 1 1 1 1 1 1 1 2 2 1 1 1 1 1 2 2 2 2 2 2 2 2 2 2 2 2 2 2 2 1 1 1 1 1 1 1 1 1 1 1 1
1 1 0 0 0 0 1 1 1 1 1 1 1 1 1 1 1 1 1 1 1 1 1 1 1 1 1 1 1 1 1 1 1 1 1 1 0 0 0 1 1 1 1
-0 0 0 -0 -0 -0 -0 0 0 0 0 0 0 0 0 0 0 0 0 0 0 0 1 1 1 1 0 1 0 1 1 1 0 0 0 0 0 0 0 0 -0 -0 0
-0 -0 -0 -1 -1 -1 -0 -0 -0 -0 -0 -0 -0 -0 -0 -0 -0 -0 -0 -0 -0 0 0 0 0 0 0 -0 -0 0 0 0 -0 -0 -0 -0 -0 -0 -0 -0 -1 -1 -1
-1 -1 -1 -1 -1 -1 -1 -1 -1 -1 -1 -1 -1 -1 -1 -1 -1 -1 -1 -0 -0 -0 -0 -0 -0 -0 -0 -0 -1 -0 -1 -0 -1 -1 -1 -1 -1 -1 -1 -1 -1 -1 -1
-1 -2 -2 -2 -2 -2 -1 -1 -2 -2 -2 -2 -2 -1 -1 -1 -1 -1 -1 -1 -1 -1 -0 -0 -0 -1 -1 -1 -1 -1 -1 -1 -1 -1 -1 -1 -1 -1 -1 -1 -1 -1 -2
-2 -2 -2 -2 -2 -2 -2 -2 -2 -2 -2 -2 -2 -2 -2 -2 -2 -2 -2 -1 -1 -1 -1 -1 -1 -1 -1 -1 -1 -1 -2 -2 -2 -2 -2 -2 -2 -1 -2 -2 -2 -2 -2
-3 -3 -3 -3 -3 -3 -3 -3 -2 -3 -3 -3 -3 -3 -3 -2 -2 -2 -2 -2 -2 -2 -2 -2 -2 -2 -2 -2 -2 -2 -2 -2 -2 -2 -2 -2 -2 -2 -2 -2 -2 -2 -2
-3 -3 -3 -3 -3 -3 -3 -3 -3 -3 -3 -3 -3 -3 -3 -3 -2 -2 -2 -2 -2 -2 -2 -2 -2 -2 -2 -2 -2 -2 -2 -3 -3 -3 -3 -3 -3 -3 -3 -3 -3 -3 -3
-3 -3 -3 -4 -4 -4 -4 -3 -3 -3 -3 -3 -3 -3 -3 -3 -3 -3 -3 -3 -3 -3 -3 -3 -3 -3 -3 -3 -3 -3 -3 -3 -3 -3 -3 -3 -3 -3 -3 -3 -3 -3 -3
-4 -4 -4 -4 -4 -4 -4 -4 -4 -4 -3 -3 -3 -4 -4 -3 -3 -3 -3 -3 -3 -3 -3 -3 -3 -3 -3 -3 -3 -3 -3 -4 -4 -4 -4 -4 -4 -4 -4 -4 -4 -4 -4
-4 -4 -4 -4 -4 -4 -4 -4 -4 -4 -4 -4 -4 -4 -4 -4 -3 -3 -3 -4 -4 -4 -4 -4 -4 -4 -4 -4 -4 -4 -4 -4 -4 -4 -4 -5 -4 -4 -4 -5 -5 -5 -4
-4 -4 -4 -4 -5 -5 -5 -5 -5 -5 -5 -4 -4 -4 -4 -4 -4 -4 -4 -4 -4 -4 -4 -4 -4 -4 -4 -4 -4 -4 -5 -5 -5 -5 -5 -5 -5 -5 -5 -5 -5 -5 -5
-5 -5 -5 -5 -5 -5 -5 -5 -5 -5 -5 -5 -5 -4 -4 -4 -4 -4 -4 -4 -4 -4 -4 -4 -4 -4 -4 -4 -5 -5 -5 -5 -5 -5 -5 -5 -5 -5 -5 -5 -5 -5 -5
-5 -5 -5 -5 -5 -5 -5 -6 -5 -5 -6 -5 -5 -5 -5 -5 -5 -5 -5 -5 -5 -5 -5 -5 -5 -5 -5 -5 -5 -5 -5 -6 -6 -6 -6 -6 -6 -6 -6 -6 -6 -6 -5
-6 -5 -5 -5 -6 -6 -6 -6 -6 -6 -6 -6 -6 -5 -5 -5 -5 -5 -5 -5 -5 -5 -5 -5 -5 -5 -5 -5 -5 -6 -6 -6 -6 -6 -6 -6 -6 -6 -6 -6 -6 -6 -6
-6 -6 -6 -6 -6 -6 -6 -6 -6 -6 -6 -6 -6 -6 -6 -6 -6 -5 -5 -5 -5 -5 -5 -5 -5 -5 -5 -6 -6 -6 -6 -6 -6 -6 -6 -6 -6 -6 -6 -6 -6 -6 -6
-7 -7 -6 -6 -6 -6 -7 -7 -6 -6 -6 -6 -6 -6 -6 -6 -6 -6 -6 -6 -6 -6 -6 -6 -6 -6 -6 -6 -6 -6 -6 -6 -6 -6 -6 -6 -6 -6 -6 -6 -6 -6 -6
-7 -7 -7 -7 -7 -7 -7 -7 -7 -7 -6 -6 -6 -6 -6 -6 -6 -6 -6 -6 -6 -6 -6 -6 -6 -6 -6 -6 -6 -6 -6 -6 -6 -6 -7 -7 -7 -7 -7 -7 -7 -7 -6
-7 -7 -7 -7 -7 -7 -7 -7 -7 -7 -7 -7 -7 -7 -7 -6 -6 -6 -6 -6 -6 -6 -6 -6 -6 -6 -6 -6 -6 -6 -6 -6 -6 -6 -7 -7 -7 -7 -7 -7 -7 -7 -7
Wind_Speed
1 1 0 0 1 2 3 3 3 2 2 3 2 2 2 2 3 3 2 2 2 1 1 2 1 1 0 0 1 1 1 2 3 3 2 2 2 2 3 3 4 4 5
0 0 1 1 1 2 2 2 3 3 2 2 2 2 2 2 2 3 3 3 3 3 2 2 2 1 1 0 1 1 2 2 3 3 2 2 2 3 2 3 3 4 4
1 1 1 1 1 1 2 2 3 3 2 2 2 2 2 2 2 3 3 3 3 3 3 3 2 2 2 1 1 1 2 1 1 2 2 2 2 2 2 2 3 3 4
1 1 1 0 1 1 1 2 2 3 2 2 2 2 2 2 2 3 3 3 2 2 2 3 3 4 4 3 2 2 1 1 1 1 2 2 2 2 1 2 3 2 3
1 1 1 1 0 0 1 2 2 2 2 2 1 1 2 2 3 3 3 3 2 1 1 2 3 3 4 3 2 2 2 1 1 1 2 2 1 1 2 2 3 3 3
1 1 1 1 1 0 0 1 2 2 2 2 1 1 1 2 3 4 4 3 3 2 2 2 2 2 3 3 3 2 3 2 2 2 3 3 3 3 2 2 2 2 3
1 1 1 1 1 1 1 1 2 2 2 2 1 1 2 2 3 3 4 3 3 3 2 2 2 2 2 2 2 2 2 3 3 3 4 4 4 4 3 3 3 2 3
1 1 0 1 1 1 1 1 1 2 2 2 1 1 2 3 3 3 3 2 2 2 2 3 3 2 2 2 2 2 2 3 4 3 4 5 4 3 4 4 4 3 3
1 1 1 1 1 1 1 1 1 1 2 2 1 1 2 3 3 3 2 1 1 2 2 2 3 3 4 2 2 3 2 3 3 4 5 5 5 4 2 1 1 1 3
3 2 2 2 2 2 2 2 1 1 2 2 1 1 2 2 3 3 3 1 1 2 2 2 3 3 3 3 2 3 3 3 2 2 3 4 4 4 4 3 3 2 2
2 2 2 2 2 2 2 1 2 2 1 2 1 1 2 2 2 3 3 2 2 2 2 2 3 3 3 3 3 3 3 2 1 1 2 2 2 2 3 3 3 3 3
2 1 1 2 2 1 1 1 1 2 2 2 1 1 2 2 2 3 3 4 3 2 3 2 3 3 3 3 3 2 2 1 1 1 1 2 2 3 3 3 4 4 4
1 2 2 2 1 1 2 2 1 1 2 2 2 2 2 2 3 4 4 4 3 2 2 3 2 2 2 2 2 2 1 1 1 1 2 3 3 3 2 2 3 3 3
2 2 2 1 1 1 1 2 2 2 2 3 3 3 3 3 3 2 2 2 2 2 2 2 2 1 1 1 1 1 1 1 1 2 2 2 2 2 2 2 2 2 2
2 2 2 2 2 2 2 2 3 3 4 4 4 4 4 4 4 4 3 2 2 2 1 0 0 0 1 1 1 1 1 1 1 1 1 2 2 2 2 2 2 2 2
2 2 2 2 2 2 2 2 3 4 5 6 7 6 5 6 5 5 5 4 4 3 2 1 1 1 2 2 2 1 1 1 1 1 1 2 2 2 2 2 2 2 3
3 3 3 2 2 2 2 2 2 3 3 5 6 6 6 6 6 6 5 4 4 3 2 2 2 2 2 2 2 2 2 2 2 2 2 2 2 2 2 2 2 3 3
3 4 3 3 3 3 3 3 3 3 3 3 4 6 6 6 5 5 4 3 2 2 2 3 3 3 3 3 3 3 3 2 2 2 2 2 2 2 2 3 3 3 3
3 3 3 3 3 3 3 3 3 3 3 3 3 3 4 4 4 4 3 2 3 3 3 3 3 3 3 3 3 3 3 3 3 3 3 3 3 2 3 3 3 4 4
3 4 4 3 3 3 3 3 3 3 3 3 3 3 2 2 2 2 2 2 3 3 3 3 3 3 3 3 3 3 3 3 3 3 3 3 3 3 3 4 3 3 4
2 3 4 3 3 3 3 3 3 3 3 3 3 4 4 2 3 3 3 3 3 3 3 3 3 3 3 3 3 3 4 3 3 3 3 3 3 3 3 3 3 3 4
2 2 3 3 3 3 3 3 3 3 4 4 3 3 4 2 2 2 3 3 3 3 3 3 3 3 4 4 4 4 4 4 4 3 3 3 3 3 3 3 3 3 3
2 2 3 3 3 4 3 3 3 3 3 3 3 2 2 2 2 3 3 3 3 3 3 3 3 3 3 4 4 4 5 5 5 4 4 4 3 3 3 3 4 3 3
3 3 3 3 3 3 3 3 3 3 3 3 3 3 3 3 3 3 3 3 3 3 3 4 4 5 5 5 5 6 6 6 6 5 5 5 4 4 3 3 3 4 3
2 2 2 3 3 3 3 3 3 3 3 3 3 3 3 3 3 3 3 3 3 3 4 4 5 5 6 6 6 6 7 7 7 6 5 4 5 4 4 4 3 3 3
2 2 2 2 2 2 3 3 3 3 3 3 3 3 3 3 3 3 3 3 3 4 4 4 5 6 6 6 7 8 8 8 8 7 5 4 5 4 4 4 4 3 3
Wind_Direction
214 210 182 194 152 143 152 166 169 170 170 167 167 168 175 170 163 158 164 158 151 159 165 170 210 219 195 272 222 204 212 200 237 264 254 258 237 260 288 280 275 270 278
247 157 138 113 110 143 159 173 169 165 176 168 160 165 173 179 170 165 171 172 171 179 192 182 207 194 168 245 244 231 231 220 213 249 271 264 253 248 260 266 284 282 283
72 91 87 99 119 159 176 175 167 157 153 145 151 168 179 179 176 172 172 175 182 191 195 195 206 189 205 222 224 235 240 234 211 223 261 268 266 262 271 283 281 279 293
93 113 124 178 195 185 172 165 166 159 152 150 165 179 178 174 179 172 167 165 178 194 203 204 207 204 209 211 214 215 216 207 196 207 248 275 274 267 248 266 290 293 293
133 133 200 208 182 120 137 164 161 157 159 155 149 170 183 183 193 177 171 171 178 191 215 220 219 211 210 211 209 208 198 200 212 228 243 268 273 263 264 263 278 297 285
197 196 198 165 156 168 171 161 155 154 143 142 156 180 196 218 200 190 181 181 184 188 210 231 226 218 222 227 220 211 202 200 215 230 249 251 259 254 256 261 270 302 291
231 225 205 189 183 205 191 159 175 176 151 150 166 183 221 234 210 204 195 181 184 200 212 225 244 240 225 228 239 247 238 235 223 222 242 252 251 243 237 245 246 255 260
279 260 220 195 204 207 183 184 199 179 167 179 186 204 233 236 219 211 194 178 179 209 224 226 228 245 237 217 219 235 246 250 249 246 244 252 254 240 222 234 239 252 274
260 249 232 205 218 220 221 223 210 187 195 207 204 197 235 247 226 207 194 177 205 235 242 233 231 243 245 230 209 230 257 273 278 267 269 277 283 282 270 228 244 252 286
260 248 240 215 222 231 233 241 245 218 223 213 219 220 237 246 228 216 202 190 210 244 253 246 244 248 248 230 219 222 242 262 275 301 298 292 289 282 267 230 218 235 277
276 262 257 238 232 231 234 242 233 229 222 218 219 246 252 257 244 223 213 205 211 230 247 263 264 260 243 235 241 237 248 260 253 257 272 286 294 289 288 278 241 220 239
286 266 260 260 250 236 215 239 233 208 208 221 222 249 266 271 267 253 239 227 224 225 240 251 260 262 247 244 252 264 277 296 275 277 290 291 288 287 290 289 274 259 251
289 281 272 267 259 236 221 226 239 220 216 223 221 237 259 262 256 257 253 246 235 241 251 260 270 266 267 263 267 271 286 286 269 273 277 287 287 280 284 291 288 284 290
272 279 275 260 263 261 243 225 223 224 226 226 223 231 244 251 245 243 249 243 242 255 265 260 267 264 284 302 329 317 291 245 245 251 276 291 306 307 292 280 275 286 290
267 267 266 264 256 261 263 243 233 236 229 230 232 228 228 242 243 239 233 227 220 228 226 241 223 242 301 305 312 320 314 317 300 290 291 300 305 311 317 315 297 297 271
256 256 253 252 248 247 258 288 272 254 255 254 247 244 247 247 251 244 239 236 233 216 199 202 220 226 242 254 259 273 277 273 275 280 280 277 282 285 292 307 312 287 277
244 249 250 247 244 243 242 247 274 291 268 260 253 250 250 250 246 244 236 229 213 190 201 211 224 231 241 243 246 249 256 262 261 261 268 274 282 283 283 284 289 297 287
252 251 249 246 242 241 243 244 247 258 276 280 268 256 252 247 241 233 223 207 212 209 219 224 230 234 238 242 245 251 254 254 259 262 264 269 271 277 282 280 279 277 282
255 252 247 245 243 240 242 242 242 248 252 262 272 264 252 242 233 230 210 214 218 227 230 234 235 237 243 244 245 247 246 248 254 256 262 264 262 262 267 273 275 282 281
259 256 254 249 243 237 236 235 238 240 244 245 249 255 251 238 229 227 229 224 223 232 235 237 238 238 239 242 244 244 249 252 251 251 258 261 259 261 262 265 269 275 275
259 259 261 256 244 236 232 231 232 234 240 245 253 257 251 239 228 226 229 228 228 233 238 241 239 237 236 239 239 239 243 250 251 252 256 258 258 261 262 263 266 270 279
254 255 254 249 248 239 235 231 233 236 239 244 254 261 256 251 241 235 234 238 239 240 236 236 238 238 233 235 238 237 240 243 244 245 250 254 256 260 263 266 268 273 279
251 253 256 251 246 242 242 236 235 235 237 238 242 249 252 248 249 248 245 245 242 240 239 234 236 242 245 248 245 237 240 241 241 237 241 246 247 252 258 262 266 271 270
242 243 247 248 245 236 233 234 235 238 239 240 242 246 248 250 253 254 254 251 242 239 238 235 235 238 241 249 254 253 252 249 248 245 234 233 239 245 250 257 260 266 267
237 239 242 243 241 239 238 238 237 240 245 247 245 246 249 251 255 258 257 252 246 242 240 241 245 244 244 247 254 257 257 255 254 251 239 230 232 235 241 247 250 260 264
242 241 240 239 237 235 233 235 238 239 242 248 248 246 247 249 253 255 254 249 248 248 249 249 248 248 251 256 256 257 258 259 258 252 241 230 225 229 233 239 241 246 255
Height
1467 1468 1469 1470 1471 1472 1473 1474 1476 1477 1478 1479 1480 1481 1482 1483 1484 1485 1486 1487 1488 1489 1490 1490 1490 1491 1491 1492 1492 1492 1492 1493 1492 1492 1493 1493 1493 1493 1493 1493 1492 1491 1490
1464 1465 1466 1467 1468 1469 1470 1472 1473 1474 1475 1476 1477 1478 1479 1480 1481 1482 1483 1484 1485 1485 1486 1486 1486 1487 1487 1488 1488 1488 1488 1489 1489 1488 1488 1489 1489 1489 1489 1489 1488 1487 1487
1462 1462 1463 1464 1465 1466 1467 1469 1470 1471 1472 1473 1474 1475 1475 1476 1477 1478 1480 1480 1481 1482 1482 1483 1483 1484 1484 1484 1484 1484 1485 1485 1485 1485 1485 1485 1485 1485 1485 1485 1485 1484 1483
1460 1460 1461 1461 1462 1463 1464 1466 1467 1468 1469 1470 1471 1472 1472 1473 1474 1475 1476 1477 1478 1478 1479 1480 1480 1480 1481 1481 1481 1481 1481 1481 1481 1481 1481 1481 1481 1481 1481 1480 1480 1480 1479
1458 1458 1458 1459 1460 1461 1462 1463 1464 1465 1466 1467 1468 1468 1469 1470 1471 1471 1472 1474 1474 1475 1475 1476 1477 1477 1477 1478 1477 1477 1478 1477 1477 1478 1478 1477 1477 1477 1477 1476 1476 1475 1475
1455 1455 1456 1457 1457 1458 1458 1459 1460 1461 1462 1463 1464 1465 1466 1466 1468 1468 1469 1470 1471 1471 1472 1472 1473 1473 1474 1474 1474 1474 1475 1474 1474 1474 1474 1474 1473 1473 1473 1473 1472 1471 1470
1452 1453 1454 1454 1455 1455 1455 1456 1457 1458 1459 1460 1461 1461 1462 1463 1464 1465 1465 1467 1467 1468 1468 1469 1469 1470 1470 1470 1470 1470 1471 1471 1471 1471 1471 1470 1470 1470 1470 1469 1469 1468 1467
1450 1450 1451 1452 1452 1452 1453 1453 1454 1455 1456 1456 1457 1458 1459 1460 1461 1461 1462 1463 1463 1464 1465 1466 1466 1466 1466 1466 1466 1466 1467 1467 1467 1467 1467 1467 1467 1467 1466 1466 1465 1465 1464
1448 1448 1449 1449 1449 1449 1450 1450 1451 1452 1452 1453 1454 1454 1455 1457 1457 1458 1459 1459 1460 1461 1462 1462 1462 1462 1463 1463 1463 1463 1463 1463 1463 1463 1463 1463 1463 1462 1462 1462 1461 1460 1458
1446 1446 1447 1447 1447 1447 1447 1447 1448 1448 1449 1450 1450 1451 1452 1453 1454 1455 1456 1456 1457 1457 1458 1458 1459 1459 1459 1459 1459 1459 1459 1459 1459 1459 1459 1459 1459 1458 1458 1457 1456 1455 1454
1444 1444 1444 1444 1444 1444 1444 1444 1445 1445 1446 1446 1447 1448 1449 1449 1450 1451 1452 1453 1453 1454 1454 1454 1455 1456 1456 1456 1456 1456 1456 1456 1455 1455 1455 1455 1454 1453 1453 1453 1452 1452 1451
1442 1442 1441 1441 1441 1441 1441 1441 1442 1442 1443 1443 1443 1444 1445 1446 1447 1448 1449 1450 1450 1450 1451 1451 1451 1452 1452 1452 1452 1452 1452 1452 1451 1451 1451 1450 1450 1449 1449 1449 1448 1448 1448
1439 1438 1438 1438 1438 1438 1438 1438 1439 1439 1440 1440 1440 1440 1441 1442 1443 1444 1445 1446 1446 1447 1447 1448 1448 1448 1448 1448 1448 1449 1448 1448 1447 1447 1447 1447 1446 1446 1445 1445 1444 1444 1444
1435 1435 1435 1435 1435 1435 1435 1435 1436 1436 1436 1437 1437 1437 1438 1439 1439 1440 1441 1442 1442 1443 1444 1444 1445 1445 1445 1445 1445 1445 1445 1444 1444 1443 1443 1443 1443 1442 1442 1441 1441 1440 1439
1432 1432 1432 1432 1432 1431 1432 1432 1432 1433 1433 1434 1434 1434 1435 1435 1436 1437 1437 1438 1439 1439 1440 1440 1440 1440 1441 1441 1441 1441 1441 1441 1440 1440 1440 1440 1439 1439 1438 1438 1437 1436 1435
1429 1429 1429 1429 1429 1428 1428 1428 1429 1429 1430 1430 1431 1431 1431 1432 1432 1433 1434 1435 1435 1436 1436 1436 1436 1436 1437 1437 1437 1437 1437 1437 1437 1437 1437 1436 1436 1435 1435 1435 1434 1433 1432
1426 1426 1426 1425 1425 1425 1425 1425 1424 1425 1426 1426 1426 1427 1428 1428 1429 1429 1430 1431 1431 1432 1432 1432 1432 1433 1433 1433 1433 1433 1433 1433 1433 1433 1433 1433 1433 1432 1432 1431 1430 1430 1429
1423 1423 1422 1422 1422 1421 1421 1421 1421 1421 1421 1421 1422 1423 1424 1424 1425 1425 1426 1427 1427 1427 1428 1428 1428 1429 1429 1429 1429 1429 1429 1429 1429 1429 1429 1429 1429 1429 1428 1427 1427 1427 1426
1419 1419 1418 1418 1418 1418 1418 1418 1418 1418 1418 1418 1418 1419 1420 1420 1421 1422 1422 1423 1423 1423 1423 1424 1424 1425 1425 1425 1425 1425 1425 1425 1425 1425 1425 1425 1425 1425 1425 1424 1424 1423 1423
1415 1415 1415 1414 1414 1414 1414 1414 1414 1414 1414 1414 1415 1415 1415 1416 1416 1417 1418 1418 1419 1419 1420 1420 1420 1421 1421 1421 1421 1421 1421 1421 1421 1421 1421 1421 1421 1421 1421 1421 1420 1420 1419
1411 1411 1411 1411 1411 1411 1411 1411 1411 1411 1411 1411 1411 1411 1412 1412 1413 1413 1414 1414 1415 1415 1416 1416 1416 1417 1417 1417 1417 1417 1417 1417 1417 1417 1417 1417 1417 1417 1417 1417 1417 1417 1416
1408 1407 1407 1407 1407 1407 1407 1407 1407 1407 1407 1407 1408 1408 1408 1409 1409 1410 1410 1411 1411 1411 1412 1412 1412 1412 1413 1413 1413 1413 1413 1413 1413 1413 1413 1413 1414 1414 1414 1414 1414 1413 1413
1405 1404 1404 1404 1404 1404 1404 1404 1404 1404 1404 1404 1404 1405 1405 1405 1406 1406 1406 1407 1407 1408 1408 1408 1408 1408 1408 1409 1409 1409 1409 1409 1409 1410 1410 1410 1410 1410 1410 1410 1410 1410 1410
1402 1401 1401 1401 1401 1401 1401 1401 1401 1401 1401 1401 1402 1402 1402 1402 1402 1402 1403 1403 1403 1403 1404 1404 1404 1404 1404 1405 1405 1405 1405 1405 1405 1406 1406 1406 1406 1406 1406 1407 1407 1407 1407
1399 1399 1399 1398 1398 1398 1398 1398 1398 1398 1398 1398 1398 1399 1399 1399 1399 1399 1399 1399 1399 1399 1399 1400 1400 1400 1400 1400 1400 1400 1401 1401 1401 1401 1401 1402 1402 1402 1403 1403 1403 1403 1404
1396 1396 1396 1396 1396 1396 1395 1395 1395 1395 1395 1395 1395 1395 1395 1395 1395 1395 1395 1395 1395 1395 1395 1395 1396 1396 1396 1396 1396 1396 1397 1397 1397 1397 1397 1397 1398 1398 1399 1399 1400 1400 1401